sat.trackr.live / text

‹ back to catalog

STARLINK-37472

NORAD 69172 · 2026-111AA

PAYLOAD ACTIVE UNKNOWN

§ Identity

Operator
Country
US
Launch date
2026-05-21
Launch site
AFETR
Launch vehicle
Mass (kg)
RCS (m²)

Purposes: comms

External: N2YO · Heavens-Above · Gunter

§ Orbital elements

Epoch: 2026-09-20T04:17:27.913056Z

Period
93.85 min
Inclination
53.1593°
Eccentricity
0.0000797
Mean motion
15.34400492 rev/d
Perigee alt
462.2 km
Apogee alt
463.2 km
Semi-major
6,840.8 km
B*
4.5140e-4
RAAN
66.9249°
Arg perigee
85.9085°
Mean anomaly
274.2008°
Rev number
1,885

§ Raw data

STARLINK-374721 69172U 26111AA  26263.17879529  .00014906  00000+0  45140-3 0  99992 69172  53.1593  66.9249 0000797  85.9085 274.2008 15.34400492 18854

JSON: /api/v1/satellites/69172 · /tle

For live sub-satellite position, see the globe view (requires WebGL).

§ Visibility from observer

Set your observer location to see the next 7 days of passes ≥ 10°. The values pass through the URL so the page stays shareable.

No JS? Fill the form by hand. The geolocation button needs JavaScript.